Location: Banksville Park
(38.5557°N, 75.1182°W)
Time: 11:43:36
(UTC+00:00)

ARIANE 5 R/B - Pass Details

Date: 19 September 2020
Orbit: 748 x 796 km, 98.6° (Epoch: 23 October)

Event Time Altitude Azimuth Distance (km) Brightness Sun altitude
Rises 08:37:22 0° 3° (N) 3,253 6.1 -25.2°
Reaches altitude 10° 08:39:51 10° 355° (N) 2,314 5.2 -24.8°
Enters shadow 08:43:09 30° 320° (NW) 1,350 3.6 -24.2°
